Regional Weather Roundup
Issued by NWS Charleston, SC

Current Version | Previous Version | Graphics & Text | Print | Product List | Glossary On
Versions: 1 2 3 4 5 6 7 8 9 10 11 12 13 14 15 16 17 18 19 20 21 22 23 24 25 26 27 28 29 30 31 32 33 34 35 36 37 38 39 40 41 42 43 44 45 46 47 48 49 50
000 ASUS42 KCHS 070827 RWRCHS REGIONAL WEATHER ROUNDUP NATIONAL WEATHER SERVICE CHARLESTON SC 300 AM EST SUN FEB 07 2016 NOTE: "FAIR" INDICATES FEW OR NO CLOUDS BELOW 12,000 FEET WITH NO SIGNIFICANT WEATHER AND/OR OBSTRUCTIONS TO VISIBILITY. NOT ALL STATIONS ARE QUALITY CONTROLLED BY THE NATIONAL WEATHER SERVICE. USE DATA WITH CAUTION...ESPECIALLY DEWPOINT OBSERVATIONS. NOTICE: OBSERVATIONS FOR THE SAVANNAH-HILTON HEAD INTERNATIONAL AIRPORT /KSAV/ HAVE BEEN TEMPORARILY REMOVED DUE TO AN ERRONEOUS TEMPERATURE SENSOR. THE OBSERVATION WILL BE REINTRODUCED ONCE REPAIRS ARE COMPLETE. SCZ027-030-031-034>040-042>050-070900- ...SOUTHEAST SOUTH CAROLINA... CITY SKY/WX TMP DP RH WIND PRES REMARKS N CHARLESTON LGT RAIN 39 36 89 N13G25 30.00F WCI 31 WATERFRONT PRK N/A 40 39 97 N18 29.84F WCI 31 MOUNT PLEASANT PTSUNNY 39 37 93 N13G22 30.00F WCI 32 JOHNS ISLAND LGT RAIN 39 37 93 N14G22 29.99F WCI 31 PINOPOLIS N/A N/A N/A N/A NE15 29.97F MONCKS CORNER LGT RAIN 36 34 93 N13 30.04S WCI 27 SUMMERVILLE LGT RAIN 37 37 100 N10G18 30.04F WCI 30 BEAUFORT MCAS LGT RAIN 40 38 93 N10G20 30.03F WCI 33 BEAUFORT ARPT RAIN 41 39 93 N14G20 30.01S HILTON HEAD IS LGT RAIN 41 39 93 N13G21 30.01F WALTERBORO LGT RAIN 41 37 87 N12 30.06S ALLENDALE LGT RAIN 39 37 93 N9 30.05S WCI 33 ...SOUTHERN MIDLANDS AND PEE DEE... CITY SKY/WX TMP DP RH WIND PRES REMARKS GEORGETOWN NOT AVBL KINGSTREE NOT AVBL ORANGEBURG LGT RAIN 39 34 82 N8 30.10F WCI 33 BARNWELL LGT RAIN 39 37 93 N12 30.09F WCI 32 AIKEN PTSUNNY 41 27 56 N7 30.12R MANNING LGT RAIN 36 34 93 N7 30.08S WCI 30 COLUMBIA CLOUDY 44 24 45 NE12 30.11F SUMTER LGT RAIN 39 33 81 N12 30.08F WCI 31 FLORENCE LGT RAIN 38 34 85 NE15 30.10F WCI 29 MYRTLE BEACH CLOUDY 39 28 65 N25G36 30.04F WCI 28 N MYRTLE BEACH RAIN 39 35 86 N17G26 30.04F WCI 30 $$ GAZ063-065-086>088-099>101-113>116-118-119-134>141-150-070900- ...SOUTHEAST GEORGIA... CITY SKY/WX TMP DP RH WIND PRES REMARKS SAVANNAH ARPT RAIN 40 37 89 N15G24 30.01S WCI 32 HUNTER AAF HVY RAIN 39 39 100 N15G23 29.97F WCI 31 FORT STEWART HVY RAIN 40 38 92 N15G22 29.99F WCI 32 STATESBORO LGT RAIN 44 42 94 N8 30.06R SYLVANIA RAIN 41 40 97 N7 30.07F CLAXTON RAIN 41 40 97 NW5 30.06F ...CSRA...CENTRAL AND FAR SOUTHEAST GEORGIA... CITY SKY/WX TMP DP RH WIND PRES REMARKS THOMSON CLOUDY 40 32 72 N3 30.17R AUGUSTA-BUSH MOCLDY 41 34 76 N9 30.11S AUGUSTA-DANIEL MOCLDY 44 25 47 N8 30.12R SWAINSBORO FAIR 39 36 87 NW3 30.10F VIDALIA CLOUDY 41 37 87 N6 30.08F EASTMAN FAIR 37 34 90 CALM 30.15S HAZLEHURST FAIR 42 38 89 NW8 30.08F ALMA CLOUDY 40 39 97 N9G17 30.07F WCI 34 WAYCROSS RAIN 43 43 99 N10 30.07R JESUP LGT RAIN 43 41 93 N9 30.04S BAXLEY RAIN 41 41 100 N9 30.05F BRUNSWICK RAIN 41 41 100 NW5 30.01R SAINT SIMONS LGT RAIN 42 42 100 NW8 29.99F $$ SCZ027-028-034-036>038-045-046-048>050-GAZ119-141-070900- ...LAKE AND SUPPLEMENTAL COASTAL OBSERVATIONS... STATION/POSITION TIME TEMP WIND PRES WAVE SWELL AIR SEA DIR/SP/G HT/PER HT/PER/DIR (UTC) (F) (DEG/KT/KT) (MB) (FT/S) (FT/S/D) WINYAH BAY 0745 38 20/ 12 1015.0F LAKE MURRAY 0700 44 20/ 2/ 5 1019.6F ACE BASIN NERRS 0700 39 20/ 6 1016.0F FORT PULASKI 0800 41 54 350/ 15/ 21 1015.7F SAPELO ISLAND 0800 43 350/ 13 1015.0F $$ ANZ835-935-AMZ111-154-330-350-352-354-370-450-454-472-070900- ...C-MAN AND BUOY OBSERVATIONS... STATION/POSITION TIME TEMP WIND PRES WAVE SWELL AIR SEA DIR/SP/G HT/PER HT/PER/DIR (UTC) (F) (DEG/KT/KT) (MB) (FT/S) (FT/S/D) BUOY 41004 0750 51 64 10/ 31/ 41 1012.2F 11/ 7 BUOY 41008 0750 47 55 20/ 25/ 29 1013.9F 7/ 7 FOLLY BEACH CMAN 0800 40 10/ 17/ 21 1015.7F CAPERS NEARSHORE 0708 41 30/ 27/ 35 1015.0F FRIPP NEARSHORE 0700 44 30/ 25/ 31 1015.1F STATION/POSITION TIME TEMP WIND PRES WAVE SWELL AIR SEA DIR/SP/G HT/PER HT/PER/DIR (UTC) (F) (DEG/KT/KT) (MB) (FT/S) (FT/S/D) 5E ST. MARYS GA 0721 56 N/A 8/ 7 2/100/11 FRYING PAN BUOY 0800 49 68 10/ 33/ 41 1013.8F BUOY 41025 0750 53 71 20/ 29/ 35 1017.3F 6/ 6 3/ 90/11 CAPE LOOKOUT NC NOT AVBL BUOY 41002 0750 65 69 120/ 17/ 21 N/A 7/11 5/ 40/11 BUOY 41010 0720 67 74 1008.8F ST AUGUSTINE FL 0800 43 57 300/ 12/ 15 1015.3F $$

USA.gov is the U.S. government's official web portal to all federal, state and local government web resources and services.